Regional Weather Roundup
Issued by NWS

Home | Current Version | Previous Version | Graphics & Text | Print | Product List | Glossary On
Versions: 1 2 3 4 5 6 7 8 9 10 11 12 13 14 15 16 17 18 19 20 21 22 23 24 25 26 27 28 29 30 31 32 33 34 35 36 37 38 39 40 41 42 43 44 45 46 47 48 49 50
000
ASUS43 KMPX 251410
RWRMN
WEATHER ROUNDUP FOR MINNESOTA
NATIONAL WEATHER SERVICE TWIN CITIES/CHANHASSEN MN
900 AM CDT SUN JUN 25 2017


NOTE: "FAIR" INDICATES FEW OR NO CLOUDS BELOW 12,000 FEET WITH NO
SIGNIFICANT WEATHER AND/OR OBSTRUCTIONS TO VISIBILITY. N/A MEANS
CURRENT SKY AND/OR WEATHER CONDITIONS ARE NOT AVAILABLE.

MNZ060>063-068>070-251500-
   Twin Cities Metro

CITY           SKY/WX    TMP DP  RH WIND       PRES   REMARKS
TWIN CITIES    CLOUDY    56  49  77 NW13      30.14R
ST PAUL        CLOUDY    56  51  84 W17       30.13R
CRYSTAL        CLOUDY    55  48  77 W14G20    30.12S
BLAINE         CLOUDY    57  50  77 W14       30.12R
LAKEVILLE      CLOUDY    52  50  93 W10       30.14S FOG
EDEN PRAIRIE   CLOUDY    56  50  80 W12       30.14R
SOUTH ST PAUL  CLOUDY    56  49  78 W10       30.13R
LAKE ELMO      CLOUDY    55  50  82 NW10G16   30.13R
$$
MNZ001>005-007-008-013>017-022>024-027-028-251500-
   Northwest Minnesota

CITY           SKY/WX    TMP DP  RH WIND       PRES   REMARKS
BEMIDJI        MOSUNNY   52  46  80 NW10      30.17R
HALLOCK        SUNNY     54  48  82 NW8       30.22S
ROSEAU         SUNNY     52  46  82 NW8       30.18S
WARROAD        SUNNY     52  46  82 NW8       30.18R
THIEF RVR FALL SUNNY     53  43  68 NW15      30.22R
CROOKSTON      SUNNY     54  45  71 N9        30.24R
FOSSTON        MOSUNNY   52  48  87 NW10      30.21R
DETROIT LAKES  SUNNY     52  45  76 NW14      30.23R
MOORHEAD       SUNNY     55  43  62 N12       30.25S
PARK RAPIDS    MOSUNNY   55  43  63 NW17G24   30.17R
MAHNOMEN       FAIR      53  45  76 NW10      30.22R
$$
MNZ006-009>011-018-025>026-251500-
   North Central Minnesota

CITY           SKY/WX    TMP DP  RH WIND       PRES   REMARKS
BAUDETTE       CLOUDY    54  45  71 N8        30.15R
FLAG ISLAND    PTSUNNY   52  48  87 NW10      30.15R
INTL FALLS     LGT RAIN  50  46  86 NW12      30.12R
WASKISH        PTSUNNY   52  48  87 NW9       30.16R
BIG FORK       LGT RAIN  48  46  93 NW5       30.13R
LONGVILLE      CLOUDY    52  48  87 NW7       30.14R
GRAND RAPIDS   LGT RAIN  51  49  92 NW16      30.12R
CRANE LAKE     LGT RAIN  48  48 100 N5        30.08R
ORR            LGT RAIN  50  46  87 NW14G22   30.07R
COOK           LGT RAIN  52  48  87 NW6       30.07R
WALKER         CLOUDY    50  46  85 NW12      30.16R
$$
MNZ012-019>021-037-251500-
   Northeast Minnesota

CITY           SKY/WX    TMP DP  RH WIND       PRES   REMARKS
DULUTH         CLOUDY    56  52  86 NW7       30.03S
ELY            RAIN      54  52  94 CALM      30.03S
HIBBING        HVY RAIN  50  49  96 NW20G28   30.07R FOG
EVELETH        DRIZZLE   55  48  77 NW10      30.06R
DULUTH HARBOR  CLOUDY    59  54  82 W8        30.04S
TWO HARBORS    CLOUDY    61  54  77 NW5       30.01R
GRAND MARAIS     N/A     50  47  89 CALM      30.00R
G MARAIS ARPRT LGT RAIN  52  46  82 N6        30.02R
$$
MNZ029>031-032-039>041-046>048-054>057-064-251500-
   West Central Minnesota

CITY           SKY/WX    TMP DP  RH WIND       PRES   REMARKS
FERGUS FALLS   SUNNY     54  45  71 N13       30.22S
WHEATON        SUNNY     57  43  58 NW13      30.27R
MORRIS         SUNNY     57  45  62 NW16      30.23R
ALEXANDRIA     MOSUNNY   55  44  66 NW15G25   30.21R
ELBOW LAKE     FAIR      53  45  74 W15       30.24R
WADENA         SUNNY     54  45  71 NW17      30.19R
GLENWOOD       SUNNY     55  45  67 NW16G26   30.21R
APPLETON       SUNNY     57  43  58 NW15G22   30.24R
BENSON         SUNNY     57  43  58 N16       30.24R
ORTONVILLE     SUNNY     57  45  62 NW12G18   30.25R
MADISON        SUNNY     61  46  59 NW21      30.25S
WILLMAR        FAIR      55  46  71 NW21      30.22R
$$
MNZ033>034-036-042>043-049>051-058-059-251500-
   Central Minnesota

CITY           SKY/WX    TMP DP  RH WIND       PRES   REMARKS
ST CLOUD       CLOUDY    53  49  86 NW16G22   30.15R
SAUK CENTRE    PTSUNNY   55  44  67 NW16G23   30.19R
PAYNESVILLE    PTSUNNY   56  44  64 NW16G26   30.19R
AITKIN         LGT RAIN  52  48  87 NW8G16    30.10R
PINE RIVER     PTSUNNY   52  46  82 NW12      30.18R
BRAINERD       CLOUDY    52  48  86 NW15G22   30.14R
STAPLES        MOSUNNY   55  45  67 NW16      30.17R
LONG PRAIRIE   FAIR      54  45  71 W16G23    30.19R
LITTLE FALLS   CLOUDY    54  45  71 NW9G18    30.16R
LITCHFIELD     PTSUNNY   57  48  72 NW16G23   30.18R
BUFFALO        CLOUDY    54  49  83 W10G18    30.16R
MAPLE LAKE     CLOUDY    54  51  88 NW9G18    30.16S
HUTCHINSON     PTSUNNY   56  48  75 W15G22    30.19R
$$
MNZ037-044-045-052-053-251500-
   East Central Minnesota

CITY           SKY/WX    TMP DP  RH WIND       PRES   REMARKS
PRINCETON      CLOUDY    55  50  82 W9G21     30.13R
MORA           RAIN      54  48  82 NW12G21   30.11R
CAMBRIDGE      CLOUDY    57  46  67 NW12G20   30.10R
RUSH CITY      LGT RAIN  54  52  94 W6        30.10R
MOOSE LAKE     CLOUDY    55  52  88 NW6       30.05R
HINCKLEY       CLOUDY    55  54  94 W7        30.08S
CLOQUET        CLOUDY    55  50  82 NW7       30.05R
MCGREGOR       CLOUDY    52  50  93 NW14G22   30.10R
$$
MNZ071>073-080-081-089-090-097-098-251500-
   Southwest Minnesota

CITY           SKY/WX    TMP DP  RH WIND       PRES   REMARKS
MONTEVIDEO     SUNNY     59  45  58 N18       30.24R
GRANITE FALLS  SUNNY     58  45  61 NW18G28   30.26R
CANBY          MOSUNNY   59  46  61 W12G21    30.27S
MARSHALL       MOSUNNY   57  44  62 NW21      30.26R
REDWOOD FALLS  SUNNY     57  42  57 NW13G29   30.23R
OLIVIA         SUNNY     55  45  67 NW20      30.21R
PIPESTONE      MOSUNNY   57  46  67 NW15G22   30.28R
WINDOM         SUNNY     57  39  51 NW24G32   30.24R
WORTHINGTON    SUNNY     56  43  61 NW20G25   30.28R
JACKSON        SUNNY     55  41  58 NW17G29   30.25R
TRACY          MOSUNNY   57  45  64 NW16G24   30.26R
SLAYTON        MOSUNNY   55  43  64 NW16G23   30.27R
$$
MNZ065>067-074>077-082>085-091>093-251500-
   South Central Minnesota

CITY           SKY/WX    TMP DP  RH WIND       PRES   REMARKS
MANKATO        CLOUDY    54  45  71 NW20G25   30.19R
NEW ULM        SUNNY     57  45  62 NW21G26   30.20R
ST JAMES       SUNNY     57  45  62 NW17G24   30.23R
FAIRMONT       MOSUNNY   57  45  64 NW17G26   30.23R
GLENCOE        CLOUDY    56  50  81 W13       30.17R
FARIBAULT      CLOUDY    54  48  82 W12G17    30.17R
OWATONNA       DRIZZLE   52  48  87 W13       30.17R
WASECA         CLOUDY    52  45  76 W15       30.19S
ALBERT LEA     CLOUDY    54  45  71 NW13G18   30.19R
$$
MNZ078>079-086>088-094>096-251500-
   Southeast Minnesota

CITY           SKY/WX    TMP DP  RH WIND       PRES   REMARKS
ROCHESTER      LGT RAIN  52  50  93 W15       30.15R
RED WING       CLOUDY    57  46  67 NW10      30.11R
STANTON        CLOUDY    56  49  80 W16       30.14R
DODGE CENTER   CLOUDY    54  46  76 W15       30.16R
WINONA         CLOUDY    55  50  82 W5        30.12R
AUSTIN         CLOUDY    52  46  82 NW12G18   30.17R
PRESTON        CLOUDY    53  47  80 W14G20    30.15R
$$
ABBREVIATIONS USED IN REMARKS
   TC - TEMPERATURES IN CELSIUS
  WCI - WIND CHILL INDEX
   HX - HEAT INDEX
  VSB - VISIBILITY
$$




USA.gov is the U.S. government's official web portal to all federal, state and local government web resources and services.